Home > Weather > Incheon > Past weeks

Flag for South Korea Weather for the Past 2 Weeks in Incheon, South Korea

Now
52 °F

Clear.


Feels Like: 51 °F
Forecast: 50 / 63 °F
Wind: 5 mph from Southwest

Location: Incheon International Airport

Current Time: Apr 29, 2016 at 11:14:49 PM

Latest Report: Apr 29, 2016 at 10:30 PM


Visibility: 10 mi

Pressure: 29.89 "Hg

Humidity: 77%

Dew Point: 45 °F

Location of IncheonLocation

Historic Weather in Incheon — Graph

°F

Incheon Temperature Yesterday

Maximum temperature yesterday: 64 °F (at 11:30 AM)
Minimum temperature yesterday: 50 °F (at 9:00 PM)
Average temperature yesterday: 57 °F

High & Low Weather Summary for the Past Weeks

 TemperatureHumidityPressure
High79 °F (Apr 26, 1:30 PM)94% (Apr 16, 11:30 PM)30.27 "Hg (Apr 16, 11:30 PM)
Low39 °F (Apr 15, 1:00 AM)15% (Apr 25, 1:30 PM)29.15 "Hg (Apr 17, 1:30 AM)
Average54 °F64%29.91 "Hg
* Reported Apr 14 10:00 PM — Apr 29 10:00 PM, Incheon, Weather by CustomWeather, © 2016

Note: Actual official high and low records may vary slightly from our data, if they occured in-between our weather recording intervals... More about our weather records

Advertising

Incheon Weather History for the Previous 24 Hours

Scroll right to see more
 ConditionsComfort  
Time TempWeatherWind HumidityBarometerVisibility
10:00 PM
Fri, Apr 29
52 °FClear.6 mph72%29.89 "Hg10 mi
9:30 PM52 °FPassing clouds.3 mph77%29.89 "HgN/A
9:00 PM52 °FClear.10 mph77%29.89 "Hg10 mi
8:30 PM52 °FPassing clouds.8 mph77%29.89 "HgN/A
8:00 PM54 °FSunny.6 mph72%29.86 "Hg10 mi
7:30 PM54 °FPassing clouds.3 mph67%29.86 "HgN/A
7:00 PM54 °FPassing clouds.3 mph67%29.89 "HgN/A
6:30 PM54 °FPassing clouds.7 mph63%29.89 "HgN/A
6:00 PM55 °FSunny.12 mph67%29.89 "Hg10 mi
5:00 PM59 °FPassing clouds.6 mph55%29.86 "HgN/A
4:30 PM59 °FPassing clouds.8 mph55%29.89 "HgN/A
4:00 PM61 °FPassing clouds.12 mph52%29.89 "HgN/A
3:30 PM61 °FSunny.9 mph52%29.89 "Hg10 mi
3:00 PM63 °FSunny.14 mph52%29.89 "Hg10 mi
1:30 PM63 °FSunny.14 mph42%29.92 "Hg10 mi
1:00 PM63 °FPassing clouds.9 mph49%29.89 "HgN/A
12:30 PM63 °FClear.9 mph49%29.92 "Hg6 mi
11:30 AM63 °FClear.7 mph45%29.92 "Hg4 mi
10:30 AM61 °FClear.8 mph52%29.92 "Hg4 mi
10:00 AM59 °FClear.7 mph55%29.92 "Hg4 mi
9:30 AM59 °FClear.8 mph55%29.92 "Hg4 mi
9:00 AM57 °FClear.10 mph55%29.89 "Hg4 mi
8:30 AM57 °FHaze.9 mph59%29.89 "Hg2 mi
8:00 AM57 °FFog.9 mph67%29.89 "Hg2 mi
7:30 AM55 °FFog.5 mph72%29.89 "Hg2 mi
7:00 AM54 °FFog.2 mph77%29.89 "Hg2 mi
6:30 AM52 °FFog.5 mph77%29.86 "Hg2 mi
6:00 AM50 °FFog.6 mph82%29.86 "Hg2 mi
5:30 AM50 °FFog.3 mph82%29.86 "Hg2 mi
5:00 AM50 °FFog.5 mph82%29.86 "Hg3 mi
4:30 AM48 °FFog.6 mph82%29.86 "Hg3 mi
4:00 AM50 °FFog.7 mph82%29.86 "Hg3 mi
3:30 AM50 °FClear.8 mph82%29.83 "Hg4 mi
3:00 AM50 °FClear.6 mph82%29.83 "Hg4 mi
2:30 AM50 °FClear.7 mph82%29.83 "Hg4 mi
2:00 AM52 °FClear.10 mph82%29.83 "Hg10 mi
1:30 AM52 °FClear.9 mph72%29.83 "Hg10 mi
1:00 AM52 °FClear.9 mph77%29.83 "Hg10 mi
12:30 AM52 °FClear.9 mph77%29.80 "Hg10 mi
12:00 AM52 °FClear.8 mph77%29.80 "Hg10 mi
11:30 PM
Thu, Apr 28
50 °FClear.5 mph76%29.80 "Hg10 mi
11:00 PM50 °FClear.7 mph76%29.80 "Hg10 mi
Weather by CustomWeather, © 2016

See weather overviewHow to use our weather pages